Time,TemperatureF,DewpointF,PressureIn,WindDirection,WindDirectionDegrees,WindSpeedMPH,WindSpeedGustMPH,Humidity,HourlyPrecipIn,Conditions,Clouds,dailyrainin,SoftwareType,DateUTC
2013-02-21 00:01:00,45.5,40.0,30.28,WNW,292,4.4,12.4,82,0.00,,,0.00,Rainwise IP-100,2013-02-21 08:01:00,
2013-02-21 00:06:00,45.5,40.0,30.28,WNW,292,7.0,12.1,81,0.00,,,0.00,Rainwise IP-100,2013-02-21 08:06:00,
2013-02-21 00:11:00,45.4,39.0,30.28,NNW,337,4.2,11.7,81,0.00,,,0.00,Rainwise IP-100,2013-02-21 08:11:00,
2013-02-21 00:16:00,45.4,39.0,30.28,WNW,292,7.9,12.8,80,0.00,,,0.00,Rainwise IP-100,2013-02-21 08:16:00,
2013-02-21 00:21:00,45.4,39.0,30.28,WNW,292,5.6,12.6,79,0.00,,,0.00,Rainwise IP-100,2013-02-21 08:21:00,
2013-02-21 00:26:00,45.3,38.0,30.27,WNW,292,6.1,13.8,78,0.00,,,0.00,Rainwise IP-100,2013-02-21 08:26:00,
2013-02-21 00:31:00,45.3,38.0,30.27,West,270,5.8,14.7,77,0.00,,,0.00,Rainwise IP-100,2013-02-21 08:31:00,
2013-02-21 00:36:00,45.4,38.0,30.27,WNW,292,4.2,11.4,76,0.00,,,0.00,Rainwise IP-100,2013-02-21 08:36:00,
2013-02-21 00:41:00,45.3,38.0,30.28,WNW,292,5.6,10.5,76,0.00,,,0.00,Rainwise IP-100,2013-02-21 08:41:00,
2013-02-21 00:46:00,45.2,38.0,30.28,NNW,337,5.4,10.3,76,0.00,,,0.00,Rainwise IP-100,2013-02-21 08:46:00,
2013-02-21 00:51:00,45.2,38.0,30.28,WNW,292,5.1,9.6,76,0.00,,,0.00,Rainwise IP-100,2013-02-21 08:51:00,
2013-02-21 00:56:00,45.1,38.0,30.28,WNW,292,8.6,9.3,75,0.00,,,0.00,Rainwise IP-100,2013-02-21 08:56:00,
2013-02-21 01:01:00,45.2,38.0,30.28,WNW,292,7.0,10.7,75,0.00,,,0.00,Rainwise IP-100,2013-02-21 09:01:00,
2013-02-21 01:04:00,45.2,37.0,30.28,WNW,292,3.5,9.8,74,0.00,,,0.00,Rainwise IP-100,2013-02-21 09:04:00,
2013-02-21 01:09:00,45.0,37.0,30.29,WNW,292,4.0,7.2,74,0.00,,,0.00,Rainwise IP-100,2013-02-21 09:09:00,
2013-02-21 01:14:00,44.7,38.0,30.28,West,270,4.9,6.8,75,0.00,,,0.00,Rainwise IP-100,2013-02-21 09:14:00,
2013-02-21 01:19:00,44.6,38.0,30.28,WNW,292,8.6,8.6,75,0.00,,,0.00,Rainwise IP-100,2013-02-21 09:19:00,
2013-02-21 01:24:00,44.8,38.0,30.28,West,270,4.4,12.4,75,0.00,,,0.00,Rainwise IP-100,2013-02-21 09:24:00,
2013-02-21 01:29:00,45.1,37.0,30.28,NW,315,4.0,13.5,74,0.00,,,0.00,Rainwise IP-100,2013-02-21 09:29:00,
2013-02-21 01:34:00,45.2,37.0,30.28,NW,315,3.5,13.1,73,0.00,,,0.00,Rainwise IP-100,2013-02-21 09:34:00,
2013-02-21 01:39:00,45.2,37.0,30.28,WNW,292,5.8,9.3,73,0.00,,,0.00,Rainwise IP-100,2013-02-21 09:39:00,
2013-02-21 01:44:00,45.1,37.0,30.28,NNW,337,2.1,7.5,73,0.00,,,0.00,Rainwise IP-100,2013-02-21 09:44:00,
2013-02-21 01:49:00,45.0,37.0,30.28,West,270,7.5,8.9,73,0.00,,,0.00,Rainwise IP-100,2013-02-21 09:49:00,
2013-02-21 01:54:00,45.0,37.0,30.28,NW,315,3.0,11.9,73,0.00,,,0.00,Rainwise IP-100,2013-02-21 09:54:00,
2013-02-21 01:59:00,45.1,37.0,30.28,West,270,2.3,12.1,73,0.00,,,0.00,Rainwise IP-100,2013-02-21 09:59:00,
2013-02-21 02:04:00,45.1,37.0,30.28,NW,315,4.4,11.0,73,0.00,,,0.00,Rainwise IP-100,2013-02-21 10:04:00,
2013-02-21 02:09:00,45.1,37.0,30.28,NW,315,3.3,9.1,74,0.00,,,0.00,Rainwise IP-100,2013-02-21 10:09:00,
2013-02-21 02:14:00,45.0,37.0,30.27,West,270,6.1,9.8,74,0.00,,,0.00,Rainwise IP-100,2013-02-21 10:14:00,
2013-02-21 02:19:00,45.1,37.0,30.28,NNW,337,4.0,13.5,73,0.00,,,0.00,Rainwise IP-100,2013-02-21 10:19:00,
2013-02-21 02:24:00,45.1,37.0,30.27,NNW,337,4.0,12.6,72,0.00,,,0.00,Rainwise IP-100,2013-02-21 10:24:00,
2013-02-21 02:29:00,45.2,37.0,30.28,WNW,292,9.8,16.1,72,0.00,,,0.00,Rainwise IP-100,2013-02-21 10:29:00,
2013-02-21 02:34:00,45.2,37.0,30.27,NNW,337,6.1,14.2,72,0.00,,,0.00,Rainwise IP-100,2013-02-21 10:34:00,
2013-02-21 02:39:00,45.3,37.0,30.27,WNW,292,2.6,11.7,72,0.00,,,0.00,Rainwise IP-100,2013-02-21 10:39:00,
2013-02-21 02:44:00,45.3,37.0,30.27,WNW,292,5.6,10.7,73,0.00,,,0.00,Rainwise IP-100,2013-02-21 10:44:00,
2013-02-21 02:49:00,45.2,37.0,30.27,WNW,292,12.4,14.9,74,0.00,,,0.00,Rainwise IP-100,2013-02-21 10:49:00,
2013-02-21 02:54:00,45.2,37.0,30.27,North,360,9.1,17.5,74,0.00,,,0.00,Rainwise IP-100,2013-02-21 10:54:00,
2013-02-21 02:59:00,45.2,37.0,30.27,WNW,292,5.4,14.5,74,0.00,,,0.00,Rainwise IP-100,2013-02-21 10:59:00,
2013-02-21 03:04:00,45.2,37.0,30.27,WNW,292,7.2,13.8,74,0.00,,,0.00,Rainwise IP-100,2013-02-21 11:04:00,
2013-02-21 03:09:00,45.2,37.0,30.27,WNW,292,8.2,13.5,73,0.00,,,0.00,Rainwise IP-100,2013-02-21 11:09:00,
2013-02-21 03:14:00,45.4,37.0,30.27,NW,315,4.2,13.1,73,0.00,,,0.00,Rainwise IP-100,2013-02-21 11:14:00,
2013-02-21 03:19:00,45.4,37.0,30.27,WNW,292,7.5,12.6,73,0.00,,,0.00,Rainwise IP-100,2013-02-21 11:19:00,
2013-02-21 03:24:00,45.5,37.0,30.27,WNW,292,6.5,11.4,72,0.00,,,0.00,Rainwise IP-100,2013-02-21 11:24:00,
2013-02-21 03:29:00,45.5,37.0,30.27,NW,315,8.6,11.4,71,0.00,,,0.00,Rainwise IP-100,2013-02-21 11:29:00,
2013-02-21 03:34:00,45.5,37.0,30.27,NW,315,4.0,11.2,71,0.00,,,0.00,Rainwise IP-100,2013-02-21 11:34:00,
2013-02-21 03:39:00,45.3,37.0,30.27,WNW,292,6.5,8.6,72,0.00,,,0.00,Rainwise IP-100,2013-02-21 11:39:00,
2013-02-21 03:44:00,45.2,37.0,30.27,WNW,292,3.3,7.7,73,0.00,,,0.00,Rainwise IP-100,2013-02-21 11:44:00,
2013-02-21 03:49:00,45.2,37.0,30.27,WNW,292,4.9,7.2,74,0.00,,,0.00,Rainwise IP-100,2013-02-21 11:49:00,
2013-02-21 03:54:00,45.1,37.0,30.27,WNW,292,4.9,12.4,74,0.00,,,0.00,Rainwise IP-100,2013-02-21 11:54:00,
2013-02-21 03:59:00,45.0,37.0,30.27,WNW,292,4.7,10.5,74,0.00,,,0.00,Rainwise IP-100,2013-02-21 11:59:00,
2013-02-21 04:04:00,45.1,38.0,30.27,WNW,292,6.3,7.9,75,0.00,,,0.00,Rainwise IP-100,2013-02-21 12:04:00,
2013-02-21 04:09:00,45.0,38.0,30.27,NW,315,2.8,6.5,75,0.00,,,0.00,Rainwise IP-100,2013-02-21 12:09:00,
2013-02-21 04:14:00,45.0,38.0,30.28,WNW,292,5.8,11.2,76,0.00,,,0.00,Rainwise IP-100,2013-02-21 12:14:00,
2013-02-21 04:19:00,45.1,38.0,30.28,NW,315,5.4,8.4,76,0.00,,,0.00,Rainwise IP-100,2013-02-21 12:19:00,
2013-02-21 04:24:00,45.1,38.0,30.27,WNW,292,3.5,7.2,76,0.00,,,0.00,Rainwise IP-100,2013-02-21 12:24:00,
2013-02-21 04:29:00,44.9,38.0,30.28,NNW,337,2.1,5.4,77,0.00,,,0.00,Rainwise IP-100,2013-02-21 12:29:00,
2013-02-21 04:34:00,44.7,38.0,30.27,WNW,292,4.2,5.6,77,0.00,,,0.00,Rainwise IP-100,2013-02-21 12:34:00,
2013-02-21 04:39:00,44.6,38.0,30.28,WNW,292,2.3,4.2,78,0.00,,,0.00,Rainwise IP-100,2013-02-21 12:39:00,
2013-02-21 04:44:00,44.8,38.0,30.27,NNW,337,5.1,13.1,77,0.00,,,0.00,Rainwise IP-100,2013-02-21 12:44:00,
2013-02-21 04:49:00,45.0,38.0,30.27,WNW,292,1.6,8.9,76,0.00,,,0.00,Rainwise IP-100,2013-02-21 12:49:00,
2013-02-21 04:54:00,45.1,38.0,30.28,WNW,292,4.9,7.7,75,0.00,,,0.00,Rainwise IP-100,2013-02-21 12:54:00,
2013-02-21 04:59:00,45.1,38.0,30.28,WNW,292,4.2,8.9,75,0.00,,,0.00,Rainwise IP-100,2013-02-21 12:59:00,
2013-02-21 05:04:00,45.0,38.0,30.28,NW,315,4.4,9.6,75,0.00,,,0.00,Rainwise IP-100,2013-02-21 13:04:00,
2013-02-21 05:09:00,44.9,38.0,30.27,WNW,292,3.7,8.6,76,0.00,,,0.00,Rainwise IP-100,2013-02-21 13:09:00,
2013-02-21 05:14:00,45.1,38.0,30.28,NW,315,3.3,8.2,75,0.00,,,0.00,Rainwise IP-100,2013-02-21 13:14:00,
2013-02-21 05:19:00,45.3,38.0,30.28,NNW,337,4.2,8.4,75,0.00,,,0.00,Rainwise IP-100,2013-02-21 13:19:00,
2013-02-21 05:24:00,45.1,38.0,30.28,WNW,292,3.0,6.1,75,0.00,,,0.00,Rainwise IP-100,2013-02-21 13:24:00,
2013-02-21 05:29:00,44.9,38.0,30.29,NNE,22,0.0,5.6,75,0.00,,,0.00,Rainwise IP-100,2013-02-21 13:29:00,
2013-02-21 05:34:00,44.9,38.0,30.28,NNW,337,3.7,9.1,75,0.00,,,0.00,Rainwise IP-100,2013-02-21 13:34:00,
2013-02-21 05:39:00,45.0,37.0,30.29,NNE,22,1.2,5.8,73,0.00,,,0.00,Rainwise IP-100,2013-02-21 13:39:00,
2013-02-21 05:44:00,45.0,37.0,30.29,NNW,337,3.5,6.3,73,0.00,,,0.00,Rainwise IP-100,2013-02-21 13:44:00,
2013-02-21 05:49:00,44.7,37.0,30.29,NNE,22,1.2,3.7,73,0.00,,,0.00,Rainwise IP-100,2013-02-21 13:49:00,
2013-02-21 05:54:00,44.4,36.0,30.29,NNW,337,3.0,4.4,74,0.00,,,0.00,Rainwise IP-100,2013-02-21 13:54:00,
2013-02-21 05:59:00,44.1,37.0,30.29,North,360,1.9,8.2,75,0.00,,,0.00,Rainwise IP-100,2013-02-21 13:59:00,
2013-02-21 06:04:00,43.8,37.0,30.29,NNW,337,1.9,4.0,76,0.00,,,0.00,Rainwise IP-100,2013-02-21 14:04:00,
2013-02-21 06:09:00,43.7,37.0,30.30,NNE,22,0.0,2.6,77,0.00,,,0.00,Rainwise IP-100,2013-02-21 14:09:00,
2013-02-21 06:14:00,43.4,37.0,30.30,NNE,22,0.0,1.2,77,0.00,,,0.00,Rainwise IP-100,2013-02-21 14:14:00,
2013-02-21 06:19:00,43.2,37.0,30.30,WNW,292,1.4,2.3,78,0.00,,,0.00,Rainwise IP-100,2013-02-21 14:19:00,
2013-02-21 06:24:00,43.1,37.0,30.30,WNW,292,1.2,1.6,79,0.00,,,0.00,Rainwise IP-100,2013-02-21 14:24:00,
2013-02-21 06:29:00,43.0,37.0,30.30,WNW,292,1.2,1.4,79,0.00,,,0.00,Rainwise IP-100,2013-02-21 14:29:00,
2013-02-21 06:34:00,42.9,37.0,30.30,WNW,292,1.6,1.9,79,0.00,,,0.00,Rainwise IP-100,2013-02-21 14:34:00,
2013-02-21 06:39:00,42.7,37.0,30.30,NW,315,2.8,2.8,80,0.00,,,0.00,Rainwise IP-100,2013-02-21 14:39:00,
2013-02-21 06:44:00,42.7,37.0,30.31,NNW,337,1.2,2.8,80,0.00,,,0.00,Rainwise IP-100,2013-02-21 14:44:00,
2013-02-21 06:49:00,42.6,37.0,30.31,NNW,337,1.6,2.1,80,0.00,,,0.00,Rainwise IP-100,2013-02-21 14:49:00,
2013-02-21 06:54:00,42.6,37.0,30.31,NNW,337,1.2,2.3,80,0.00,,,0.00,Rainwise IP-100,2013-02-21 14:54:00,
2013-02-21 06:59:00,42.7,37.0,30.31,NNW,337,2.3,3.0,80,0.00,,,0.00,Rainwise IP-100,2013-02-21 14:59:00,
2013-02-21 07:04:00,42.8,37.0,30.31,NW,315,1.9,3.7,80,0.00,,,0.00,Rainwise IP-100,2013-02-21 15:04:00,
2013-02-21 07:09:00,43.0,37.0,30.31,NNW,337,2.1,3.3,79,0.00,,,0.00,Rainwise IP-100,2013-02-21 15:09:00,
2013-02-21 07:14:00,43.2,37.0,30.31,NNW,337,1.9,3.0,79,0.00,,,0.00,Rainwise IP-100,2013-02-21 15:14:00,
2013-02-21 07:19:00,43.4,37.0,30.31,NNW,337,2.1,2.6,79,0.00,,,0.00,Rainwise IP-100,2013-02-21 15:19:00,
2013-02-21 07:24:00,43.7,38.0,30.31,WNW,292,2.6,3.3,78,0.00,,,0.00,Rainwise IP-100,2013-02-21 15:24:00,
2013-02-21 07:29:00,44.1,38.0,30.31,WNW,292,0.0,2.8,78,0.00,,,0.00,Rainwise IP-100,2013-02-21 15:29:00,
2013-02-21 07:34:00,44.5,38.0,30.32,NNE,22,1.9,2.3,78,0.00,,,0.00,Rainwise IP-100,2013-02-21 15:34:00,
2013-02-21 07:39:00,44.9,38.0,30.32,NE,45,1.9,3.3,77,0.00,,,0.00,Rainwise IP-100,2013-02-21 15:39:00,
2013-02-21 07:44:00,45.2,38.0,30.32,NW,315,1.2,2.3,76,0.00,,,0.00,Rainwise IP-100,2013-02-21 15:44:00,
2013-02-21 07:49:00,45.6,38.0,30.33,WNW,292,2.6,3.5,75,0.00,,,0.00,Rainwise IP-100,2013-02-21 15:49:00,
2013-02-21 07:54:00,45.9,38.0,30.33,NNE,22,0.0,3.7,74,0.00,,,0.00,Rainwise IP-100,2013-02-21 15:54:00,
2013-02-21 07:59:00,46.6,38.0,30.33,NW,315,2.6,5.6,72,0.00,,,0.00,Rainwise IP-100,2013-02-21 15:59:00,
2013-02-21 08:04:00,47.0,37.0,30.34,WNW,292,0.0,4.7,70,0.00,,,0.00,Rainwise IP-100,2013-02-21 16:04:00,
2013-02-21 08:09:00,47.2,37.0,30.33,NNE,22,3.5,5.8,69,0.00,,,0.00,Rainwise IP-100,2013-02-21 16:09:00,
2013-02-21 08:14:00,47.6,37.0,30.35,NNW,337,1.4,4.7,68,0.00,,,0.00,Rainwise IP-100,2013-02-21 16:14:00,
2013-02-21 08:19:00,48.1,38.0,30.34,North,360,2.8,4.2,67,0.00,,,0.00,Rainwise IP-100,2013-02-21 16:19:00,
2013-02-21 08:24:00,48.5,38.0,30.35,NW,315,3.3,3.5,66,0.00,,,0.00,Rainwise IP-100,2013-02-21 16:24:00,
2013-02-21 08:29:00,48.8,38.0,30.35,NW,315,4.4,4.7,65,0.00,,,0.00,Rainwise IP-100,2013-02-21 16:29:00,
2013-02-21 08:34:00,48.6,37.0,30.35,NNW,337,1.9,6.1,64,0.00,,,0.00,Rainwise IP-100,2013-02-21 16:34:00,
2013-02-21 08:39:00,48.5,37.0,30.36,WNW,292,3.5,6.3,64,0.00,,,0.00,Rainwise IP-100,2013-02-21 16:39:00,
2013-02-21 08:44:00,49.0,37.0,30.35,WNW,292,2.6,5.1,64,0.00,,,0.00,Rainwise IP-100,2013-02-21 16:44:00,
2013-02-21 08:49:00,49.5,38.0,30.36,WNW,292,4.0,4.0,63,0.00,,,0.00,Rainwise IP-100,2013-02-21 16:49:00,
2013-02-21 08:54:00,49.9,37.0,30.36,WNW,292,2.6,6.3,62,0.00,,,0.00,Rainwise IP-100,2013-02-21 16:54:00,
2013-02-21 08:59:00,49.8,37.0,30.36,WNW,292,1.9,6.1,61,0.00,,,0.00,Rainwise IP-100,2013-02-21 16:59:00,
2013-02-21 09:04:00,49.8,37.0,30.36,NE,45,1.6,4.4,61,0.00,,,0.00,Rainwise IP-100,2013-02-21 17:04:00,
2013-02-21 09:09:00,50.2,37.0,30.36,NW,315,3.3,6.5,60,0.00,,,0.00,Rainwise IP-100,2013-02-21 17:09:00,
2013-02-21 09:14:00,50.5,37.0,30.36,SE,135,0.0,4.7,60,0.00,,,0.00,Rainwise IP-100,2013-02-21 17:14:00,
2013-02-21 09:19:00,51.3,37.0,30.36,ENE,67,0.0,5.4,59,0.00,,,0.00,Rainwise IP-100,2013-02-21 17:19:00,
2013-02-21 09:24:00,51.9,38.0,30.36,NNE,22,0.0,5.8,58,0.00,,,0.00,Rainwise IP-100,2013-02-21 17:24:00,
2013-02-21 09:29:00,52.3,37.0,30.37,WNW,292,3.7,3.7,57,0.00,,,0.00,Rainwise IP-100,2013-02-21 17:29:00,
2013-02-21 09:34:00,52.7,37.0,30.37,WSW,247,4.0,4.9,56,0.00,,,0.00,Rainwise IP-100,2013-02-21 17:34:00,
2013-02-21 09:39:00,52.6,37.0,30.37,NW,315,1.9,6.1,55,0.00,,,0.00,Rainwise IP-100,2013-02-21 17:39:00,
2013-02-21 09:44:00,52.6,37.0,30.37,NNE,22,2.6,9.6,54,0.00,,,0.00,Rainwise IP-100,2013-02-21 17:44:00,
2013-02-21 09:49:00,52.9,36.0,30.37,WNW,292,0.0,6.5,53,0.00,,,0.00,Rainwise IP-100,2013-02-21 17:49:00,
2013-02-21 09:54:00,53.5,36.0,30.37,SE,135,5.8,5.8,52,0.00,,,0.00,Rainwise IP-100,2013-02-21 17:54:00,
2013-02-21 09:59:00,53.9,36.0,30.37,North,360,0.0,9.8,50,0.00,,,0.00,Rainwise IP-100,2013-02-21 17:59:00,
2013-02-21 10:04:00,53.9,35.0,30.37,WNW,292,4.7,12.4,47,0.00,,,0.00,Rainwise IP-100,2013-02-21 18:04:00,
2013-02-21 10:09:00,53.4,33.0,30.37,NNE,22,4.0,14.5,47,0.00,,,0.00,Rainwise IP-100,2013-02-21 18:09:00,
2013-02-21 10:14:00,53.2,33.0,30.37,NW,315,3.7,9.1,47,0.00,,,0.00,Rainwise IP-100,2013-02-21 18:14:00,
2013-02-21 10:19:00,53.7,33.0,30.38,NNW,337,7.0,9.1,47,0.00,,,0.00,Rainwise IP-100,2013-02-21 18:19:00,
2013-02-21 10:24:00,53.9,33.0,30.38,NNW,337,4.7,11.9,45,0.00,,,0.00,Rainwise IP-100,2013-02-21 18:24:00,
2013-02-21 10:29:00,53.7,32.0,30.38,WSW,247,3.3,11.4,44,0.00,,,0.00,Rainwise IP-100,2013-02-21 18:29:00,
2013-02-21 10:34:00,53.4,32.0,30.39,North,360,9.1,13.3,45,0.00,,,0.00,Rainwise IP-100,2013-02-21 18:34:00,
2013-02-21 10:39:00,53.1,32.0,30.38,NNE,22,9.6,13.5,45,0.00,,,0.00,Rainwise IP-100,2013-02-21 18:39:00,
2013-02-21 10:44:00,53.1,32.0,30.39,NNW,337,3.3,13.8,46,0.00,,,0.00,Rainwise IP-100,2013-02-21 18:44:00,
2013-02-21 10:49:00,53.4,33.0,30.39,NE,45,3.0,10.5,46,0.00,,,0.00,Rainwise IP-100,2013-02-21 18:49:00,
2013-02-21 10:54:00,53.7,32.0,30.39,NE,45,5.1,10.3,45,0.00,,,0.00,Rainwise IP-100,2013-02-21 18:54:00,
2013-02-21 10:59:00,53.5,33.0,30.39,NNE,22,4.4,13.3,46,0.00,,,0.00,Rainwise IP-100,2013-02-21 18:59:00,
2013-02-21 11:04:00,53.5,32.0,30.39,NNE,22,12.6,12.6,45,0.00,,,0.00,Rainwise IP-100,2013-02-21 19:04:00,
2013-02-21 11:09:00,53.4,32.0,30.39,ESE,112,1.9,16.8,45,0.00,,,0.00,Rainwise IP-100,2013-02-21 19:09:00,
2013-02-21 11:14:00,53.3,32.0,30.39,NW,315,5.4,12.1,45,0.00,,,0.00,Rainwise IP-100,2013-02-21 19:14:00,
2013-02-21 11:19:00,53.5,32.0,30.39,NNE,22,10.0,12.6,45,0.00,,,0.00,Rainwise IP-100,2013-02-21 19:19:00,
2013-02-21 11:24:00,53.5,32.0,30.38,NNW,337,6.8,13.8,45,0.00,,,0.00,Rainwise IP-100,2013-02-21 19:24:00,
2013-02-21 11:29:00,53.6,32.0,30.38,NNE,22,1.9,12.6,44,0.00,,,0.00,Rainwise IP-100,2013-02-21 19:29:00,
2013-02-21 11:34:00,54.2,32.0,30.38,NNE,22,6.5,11.4,44,0.00,,,0.00,Rainwise IP-100,2013-02-21 19:34:00,
2013-02-21 11:39:00,54.6,32.0,30.39,NNE,22,2.1,12.4,43,0.00,,,0.00,Rainwise IP-100,2013-02-21 19:39:00,
2013-02-21 11:44:00,54.8,33.0,30.39,NNE,22,10.3,11.0,43,0.00,,,0.00,Rainwise IP-100,2013-02-21 19:44:00,
2013-02-21 11:49:00,55.2,33.0,30.38,WSW,247,0.0,10.3,43,0.00,,,0.00,Rainwise IP-100,2013-02-21 19:49:00,
2013-02-21 11:54:00,55.5,33.0,30.38,NNE,22,1.4,10.7,42,0.00,,,0.00,Rainwise IP-100,2013-02-21 19:54:00,
2013-02-21 11:59:00,55.7,32.0,30.38,NW,315,6.5,10.0,41,0.00,,,0.00,Rainwise IP-100,2013-02-21 19:59:00,
2013-02-21 12:04:00,55.9,32.0,30.38,West,270,3.7,10.7,41,0.00,,,0.00,Rainwise IP-100,2013-02-21 20:04:00,
2013-02-21 12:09:00,55.9,32.0,30.39,NW,315,6.8,9.8,41,0.00,,,0.00,Rainwise IP-100,2013-02-21 20:09:00,
2013-02-21 12:14:00,56.1,32.0,30.38,WNW,292,7.9,10.0,41,0.00,,,0.00,Rainwise IP-100,2013-02-21 20:14:00,
2013-02-21 12:19:00,56.5,32.0,30.38,NE,45,4.7,10.5,40,0.00,,,0.00,Rainwise IP-100,2013-02-21 20:19:00,
2013-02-21 12:24:00,56.8,32.0,30.38,SSW,202,0.0,14.0,39,0.00,,,0.00,Rainwise IP-100,2013-02-21 20:24:00,
2013-02-21 12:29:00,56.9,33.0,30.38,SW,225,1.6,6.8,41,0.00,,,0.00,Rainwise IP-100,2013-02-21 20:29:00,
2013-02-21 12:34:00,57.2,37.0,30.37,WNW,292,6.5,8.2,46,0.00,,,0.00,Rainwise IP-100,2013-02-21 20:34:00,
2013-02-21 12:39:00,57.0,39.0,30.37,WNW,292,5.8,9.3,50,0.00,,,0.00,Rainwise IP-100,2013-02-21 20:39:00,
2013-02-21 12:44:00,55.9,38.0,30.37,WSW,247,6.5,13.5,50,0.00,,,0.00,Rainwise IP-100,2013-02-21 20:44:00,
2013-02-21 12:49:00,55.2,37.0,30.37,WNW,292,2.6,11.2,51,0.00,,,0.00,Rainwise IP-100,2013-02-21 20:49:00,
2013-02-21 12:54:00,55.4,38.0,30.37,WNW,292,6.5,11.2,52,0.00,,,0.00,Rainwise IP-100,2013-02-21 20:54:00,
2013-02-21 12:59:00,54.9,38.0,30.36,WNW,292,1.2,13.1,52,0.00,,,0.00,Rainwise IP-100,2013-02-21 20:59:00,
2013-02-21 13:04:00,54.9,38.0,30.36,WNW,292,2.3,11.7,53,0.00,,,0.00,Rainwise IP-100,2013-02-21 21:04:00,
2013-02-21 13:09:00,55.3,38.0,30.37,NW,315,10.3,11.0,52,0.00,,,0.00,Rainwise IP-100,2013-02-21 21:09:00,
2013-02-21 13:14:00,54.8,37.0,30.37,WNW,292,0.0,13.1,50,0.00,,,0.00,Rainwise IP-100,2013-02-21 21:14:00,
2013-02-21 13:19:00,54.8,37.0,30.36,WNW,292,1.6,8.6,50,0.00,,,0.00,Rainwise IP-100,2013-02-21 21:19:00,
2013-02-21 13:24:00,55.6,38.0,30.36,WNW,292,1.9,11.0,51,0.00,,,0.00,Rainwise IP-100,2013-02-21 21:24:00,
2013-02-21 13:29:00,56.0,38.0,30.36,WNW,292,6.5,12.8,51,0.00,,,0.00,Rainwise IP-100,2013-02-21 21:29:00,
2013-02-21 13:34:00,55.5,37.0,30.36,SW,225,2.8,13.5,49,0.00,,,0.00,Rainwise IP-100,2013-02-21 21:34:00,
2013-02-21 13:39:00,55.3,37.0,30.36,NW,315,1.6,12.4,49,0.00,,,0.00,Rainwise IP-100,2013-02-21 21:39:00,
2013-02-21 13:44:00,55.5,37.0,30.36,WNW,292,11.4,11.4,49,0.00,,,0.00,Rainwise IP-100,2013-02-21 21:44:00,
2013-02-21 13:49:00,55.2,37.0,30.36,West,270,7.0,14.9,49,0.00,,,0.00,Rainwise IP-100,2013-02-21 21:49:00,
2013-02-21 13:54:00,54.7,36.0,30.36,West,270,7.9,17.3,48,0.00,,,0.00,Rainwise IP-100,2013-02-21 21:54:00,
2013-02-21 13:59:00,54.9,36.0,30.36,WNW,292,6.3,15.2,48,0.00,,,0.00,Rainwise IP-100,2013-02-21 21:59:00,
2013-02-21 14:04:00,55.3,37.0,30.36,West,270,11.9,18.4,50,0.00,,,0.00,Rainwise IP-100,2013-02-21 22:04:00,
2013-02-21 14:09:00,55.0,38.0,30.36,WNW,292,11.9,15.4,52,0.00,,,0.00,Rainwise IP-100,2013-02-21 22:09:00,
2013-02-21 14:14:00,54.8,38.0,30.36,WSW,247,6.3,13.1,52,0.00,,,0.00,Rainwise IP-100,2013-02-21 22:14:00,
2013-02-21 14:19:00,55.1,37.0,30.36,WNW,292,6.5,15.6,50,0.00,,,0.00,Rainwise IP-100,2013-02-21 22:19:00,
2013-02-21 14:24:00,55.3,37.0,30.36,WNW,292,10.5,14.9,49,0.00,,,0.00,Rainwise IP-100,2013-02-21 22:24:00,
2013-02-21 14:30:00,55.5,37.0,30.35,West,270,6.8,11.7,49,0.00,,,0.00,Rainwise IP-100,2013-02-21 22:30:00,
2013-02-21 14:35:00,55.9,37.0,30.35,WNW,292,11.7,14.2,48,0.00,,,0.00,Rainwise IP-100,2013-02-21 22:35:00,
2013-02-21 14:40:00,56.0,37.0,30.35,WNW,292,10.0,15.6,49,0.00,,,0.00,Rainwise IP-100,2013-02-21 22:40:00,
2013-02-21 14:45:00,55.7,38.0,30.35,West,270,5.8,14.9,51,0.00,,,0.00,Rainwise IP-100,2013-02-21 22:45:00,
2013-02-21 14:50:00,55.2,38.0,30.35,WNW,292,14.2,17.3,52,0.00,,,0.00,Rainwise IP-100,2013-02-21 22:50:00,
2013-02-21 14:55:00,55.0,38.0,30.35,WSW,247,2.6,16.3,52,0.00,,,0.00,Rainwise IP-100,2013-02-21 22:55:00,
2013-02-21 15:00:00,55.2,38.0,30.35,WNW,292,7.0,17.3,52,0.00,,,0.00,Rainwise IP-100,2013-02-21 23:00:00,
2013-02-21 15:05:00,55.3,38.0,30.35,WNW,292,8.4,13.3,52,0.00,,,0.00,Rainwise IP-100,2013-02-21 23:05:00,
2013-02-21 15:10:00,55.3,38.0,30.35,WSW,247,6.1,16.6,53,0.00,,,0.00,Rainwise IP-100,2013-02-21 23:10:00,
2013-02-21 15:15:00,55.4,38.0,30.34,West,270,2.8,15.2,52,0.00,,,0.00,Rainwise IP-100,2013-02-21 23:15:00,
2013-02-21 15:20:00,55.6,39.0,30.35,WSW,247,5.4,14.2,53,0.00,,,0.00,Rainwise IP-100,2013-02-21 23:20:00,
2013-02-21 15:25:00,55.1,39.0,30.34,WSW,247,6.5,18.4,54,0.00,,,0.00,Rainwise IP-100,2013-02-21 23:25:00,
2013-02-21 15:30:00,54.5,39.0,30.34,NNW,337,1.4,15.6,55,0.00,,,0.00,Rainwise IP-100,2013-02-21 23:30:00,
2013-02-21 15:35:00,54.2,38.0,30.34,WNW,292,9.1,16.3,54,0.00,,,0.00,Rainwise IP-100,2013-02-21 23:35:00,
2013-02-21 15:40:00,54.1,37.0,30.34,West,270,11.9,17.0,53,0.00,,,0.00,Rainwise IP-100,2013-02-21 23:40:00,
2013-02-21 15:45:00,54.4,38.0,30.33,WSW,247,4.2,13.3,53,0.00,,,0.00,Rainwise IP-100,2013-02-21 23:45:00,
2013-02-21 15:50:00,54.3,38.0,30.33,WNW,292,10.0,17.3,53,0.00,,,0.00,Rainwise IP-100,2013-02-21 23:50:00,
2013-02-21 15:55:00,54.1,38.0,30.33,WNW,292,14.5,14.5,55,0.00,,,0.00,Rainwise IP-100,2013-02-21 23:55:00,
2013-02-21 16:00:00,53.9,39.0,30.33,WNW,292,10.5,14.5,57,0.00,,,0.00,Rainwise IP-100,2013-02-22 00:00:00,
2013-02-21 16:05:00,53.5,39.0,30.33,WNW,292,9.8,14.9,59,0.00,,,0.00,Rainwise IP-100,2013-02-22 00:05:00,
2013-02-21 16:10:00,53.1,39.0,30.33,WSW,247,8.9,17.3,60,0.00,,,0.00,Rainwise IP-100,2013-02-22 00:10:00,
2013-02-21 16:15:00,52.9,39.0,30.33,WNW,292,5.1,16.1,61,0.00,,,0.00,Rainwise IP-100,2013-02-22 00:15:00,
2013-02-21 16:20:00,52.8,40.0,30.33,WNW,292,11.4,15.2,62,0.00,,,0.00,Rainwise IP-100,2013-02-22 00:20:00,
2013-02-21 16:25:00,52.7,40.0,30.33,WNW,292,9.3,13.3,63,0.00,,,0.00,Rainwise IP-100,2013-02-22 00:25:00,
2013-02-21 16:30:00,52.7,41.0,30.33,WNW,292,7.0,14.0,64,0.00,,,0.00,Rainwise IP-100,2013-02-22 00:30:00,
2013-02-21 16:35:00,52.8,40.0,30.33,WSW,247,8.4,13.8,62,0.00,,,0.00,Rainwise IP-100,2013-02-22 00:35:00,
2013-02-21 16:40:00,52.7,39.0,30.34,West,270,8.6,15.2,61,0.00,,,0.00,Rainwise IP-100,2013-02-22 00:40:00,
2013-02-21 16:45:00,52.7,40.0,30.34,WSW,247,7.9,16.1,63,0.00,,,0.00,Rainwise IP-100,2013-02-22 00:45:00,
2013-02-21 16:50:00,52.4,40.0,30.33,West,270,11.4,15.2,64,0.00,,,0.00,Rainwise IP-100,2013-02-22 00:50:00,
2013-02-21 16:55:00,52.1,40.0,30.34,NW,315,11.2,18.2,65,0.00,,,0.00,Rainwise IP-100,2013-02-22 00:55:00,
2013-02-21 17:00:00,51.9,41.0,30.34,SW,225,2.6,14.0,66,0.00,,,0.00,Rainwise IP-100,2013-02-22 01:00:00,
2013-02-21 17:05:00,51.7,41.0,30.33,WNW,292,8.4,15.4,67,0.00,,,0.00,Rainwise IP-100,2013-02-22 01:05:00,
2013-02-21 17:10:00,51.4,40.0,30.34,NW,315,7.9,13.5,67,0.00,,,0.00,Rainwise IP-100,2013-02-22 01:10:00,
2013-02-21 17:15:00,51.0,41.0,30.34,WSW,247,4.9,15.6,68,0.00,,,0.00,Rainwise IP-100,2013-02-22 01:15:00,
2013-02-21 17:20:00,50.6,41.0,30.34,WNW,292,5.6,16.6,69,0.00,,,0.00,Rainwise IP-100,2013-02-22 01:20:00,
2013-02-21 17:25:00,50.2,40.0,30.34,WNW,292,10.0,14.7,70,0.00,,,0.00,Rainwise IP-100,2013-02-22 01:25:00,
2013-02-21 17:30:00,50.1,40.0,30.34,WSW,247,2.3,14.9,70,0.00,,,0.00,Rainwise IP-100,2013-02-22 01:30:00,
2013-02-21 17:35:00,50.0,41.0,30.34,WNW,292,6.3,15.9,71,0.00,,,0.00,Rainwise IP-100,2013-02-22 01:35:00,
2013-02-21 17:40:00,49.8,41.0,30.34,WNW,292,8.2,16.3,72,0.00,,,0.00,Rainwise IP-100,2013-02-22 01:40:00,
2013-02-21 17:45:00,49.7,41.0,30.34,WSW,247,7.0,15.2,72,0.00,,,0.00,Rainwise IP-100,2013-02-22 01:45:00,
2013-02-21 17:50:00,49.5,41.0,30.34,WNW,292,8.2,13.5,73,0.00,,,0.00,Rainwise IP-100,2013-02-22 01:50:00,
2013-02-21 17:55:00,49.4,41.0,30.34,West,270,6.8,14.5,73,0.00,,,0.00,Rainwise IP-100,2013-02-22 01:55:00,
2013-02-21 18:00:00,49.3,41.0,30.34,WNW,292,7.5,12.6,73,0.00,,,0.00,Rainwise IP-100,2013-02-22 02:00:00,
2013-02-21 18:05:00,49.2,41.0,30.33,West,270,6.3,12.8,74,0.00,,,0.00,Rainwise IP-100,2013-02-22 02:05:00,
2013-02-21 18:10:00,49.0,41.0,30.34,West,270,6.3,13.8,74,0.00,,,0.00,Rainwise IP-100,2013-02-22 02:10:00,
2013-02-21 18:15:00,48.8,41.0,30.34,WNW,292,11.9,12.8,75,0.00,,,0.00,Rainwise IP-100,2013-02-22 02:15:00,
2013-02-21 18:20:00,48.6,42.0,30.33,WNW,292,9.6,15.2,76,0.00,,,0.00,Rainwise IP-100,2013-02-22 02:20:00,
2013-02-21 18:25:00,48.4,41.0,30.34,WNW,292,9.1,13.8,76,0.00,,,0.00,Rainwise IP-100,2013-02-22 02:25:00,
2013-02-21 18:30:00,48.3,41.0,30.33,WNW,292,4.7,14.9,77,0.00,,,0.00,Rainwise IP-100,2013-02-22 02:30:00,
2013-02-21 18:35:00,48.2,41.0,30.34,WNW,292,11.0,14.5,77,0.00,,,0.00,Rainwise IP-100,2013-02-22 02:35:00,
2013-02-21 18:40:00,48.2,42.0,30.34,West,270,3.0,13.8,78,0.00,,,0.00,Rainwise IP-100,2013-02-22 02:40:00,
2013-02-21 18:45:00,48.1,42.0,30.35,WNW,292,6.3,14.0,78,0.00,,,0.00,Rainwise IP-100,2013-02-22 02:45:00,
2013-02-21 18:50:00,48.1,42.0,30.35,NW,315,4.9,13.3,79,0.00,,,0.00,Rainwise IP-100,2013-02-22 02:50:00,
2013-02-21 18:55:00,48.2,42.0,30.35,WNW,292,6.3,13.5,78,0.00,,,0.00,Rainwise IP-100,2013-02-22 02:55:00,
2013-02-21 19:00:00,48.2,41.0,30.35,WNW,292,6.5,11.7,76,0.00,,,0.00,Rainwise IP-100,2013-02-22 03:00:00,
2013-02-21 19:05:00,48.3,40.0,30.35,WNW,292,8.6,12.1,74,0.00,,,0.00,Rainwise IP-100,2013-02-22 03:05:00,
2013-02-21 19:10:00,48.5,41.0,30.35,WNW,292,8.6,11.7,73,0.00,,,0.00,Rainwise IP-100,2013-02-22 03:10:00,
2013-02-21 19:15:00,48.6,40.0,30.35,WNW,292,4.2,10.7,72,0.00,,,0.00,Rainwise IP-100,2013-02-22 03:15:00,
2013-02-21 19:20:00,48.7,40.0,30.35,NW,315,4.2,10.3,71,0.00,,,0.00,Rainwise IP-100,2013-02-22 03:20:00,
2013-02-21 19:25:00,48.6,40.0,30.35,WNW,292,2.8,7.5,71,0.00,,,0.00,Rainwise IP-100,2013-02-22 03:25:00,
2013-02-21 19:30:00,48.5,40.0,30.36,ESE,112,2.3,3.3,70,0.00,,,0.00,Rainwise IP-100,2013-02-22 03:30:00,
2013-02-21 19:35:00,48.3,39.0,30.36,ENE,67,1.4,3.0,70,0.00,,,0.00,Rainwise IP-100,2013-02-22 03:35:00,
2013-02-21 19:40:00,48.0,40.0,30.36,SSE,157,4.7,4.9,74,0.00,,,0.00,Rainwise IP-100,2013-02-22 03:40:00,
2013-02-21 19:45:00,47.5,41.0,30.36,SSE,157,2.1,5.6,79,0.00,,,0.00,Rainwise IP-100,2013-02-22 03:45:00,
2013-02-21 19:50:00,47.0,41.0,30.36,South,180,3.0,4.7,82,0.00,,,0.00,Rainwise IP-100,2013-02-22 03:50:00,
2013-02-21 19:55:00,46.9,42.0,30.36,SW,225,5.1,7.9,84,0.00,,,0.00,Rainwise IP-100,2013-02-22 03:55:00,
2013-02-21 20:00:00,47.0,42.0,30.35,WSW,247,3.7,9.8,85,0.00,,,0.00,Rainwise IP-100,2013-02-22 04:00:00,
2013-02-21 20:05:00,47.0,42.0,30.36,SW,225,1.4,6.3,85,0.00,,,0.00,Rainwise IP-100,2013-02-22 04:05:00,
2013-02-21 20:10:00,46.9,43.0,30.36,SW,225,4.0,7.2,86,0.00,,,0.00,Rainwise IP-100,2013-02-22 04:10:00,
2013-02-21 20:15:00,46.8,43.0,30.36,WSW,247,3.5,6.8,86,0.00,,,0.00,Rainwise IP-100,2013-02-22 04:15:00,
2013-02-21 20:20:00,46.8,43.0,30.36,SW,225,7.2,8.2,86,0.00,,,0.00,Rainwise IP-100,2013-02-22 04:20:00,
2013-02-21 20:25:00,46.7,43.0,30.36,WSW,247,2.3,7.5,86,0.00,,,0.00,Rainwise IP-100,2013-02-22 04:25:00,
2013-02-21 20:30:00,46.6,43.0,30.36,SE,135,0.0,5.8,86,0.00,,,0.00,Rainwise IP-100,2013-02-22 04:30:00,
2013-02-21 20:35:00,46.5,43.0,30.36,SSW,202,1.9,3.7,86,0.00,,,0.00,Rainwise IP-100,2013-02-22 04:35:00,
2013-02-21 20:40:00,46.5,43.0,30.36,WSW,247,1.4,3.3,87,0.00,,,0.00,Rainwise IP-100,2013-02-22 04:40:00,
2013-02-21 20:45:00,46.5,43.0,30.35,SW,225,3.3,3.7,87,0.00,,,0.00,Rainwise IP-100,2013-02-22 04:45:00,
2013-02-21 20:50:00,46.5,43.0,30.35,West,270,1.4,4.7,87,0.00,,,0.00,Rainwise IP-100,2013-02-22 04:50:00,
2013-02-21 20:55:00,46.4,42.0,30.36,West,270,1.4,3.5,87,0.00,,,0.00,Rainwise IP-100,2013-02-22 04:55:00,
2013-02-21 21:00:00,46.3,42.0,30.36,WNW,292,0.0,3.3,88,0.00,,,0.00,Rainwise IP-100,2013-02-22 05:00:00,
2013-02-21 21:05:00,46.3,42.0,30.36,WSW,247,1.4,4.4,88,0.00,,,0.00,Rainwise IP-100,2013-02-22 05:05:00,
2013-02-21 21:10:00,46.4,42.0,30.36,West,270,1.6,4.4,88,0.00,,,0.00,Rainwise IP-100,2013-02-22 05:10:00,
2013-02-21 21:15:00,46.5,43.0,30.36,West,270,0.0,3.0,89,0.00,,,0.00,Rainwise IP-100,2013-02-22 05:15:00,
2013-02-21 21:20:00,46.5,43.0,30.37,West,270,1.4,4.7,89,0.00,,,0.00,Rainwise IP-100,2013-02-22 05:20:00,
2013-02-21 21:25:00,46.4,43.0,30.37,WNW,292,2.3,3.3,89,0.00,,,0.00,Rainwise IP-100,2013-02-22 05:25:00,
2013-02-21 21:30:00,46.5,43.0,30.37,West,270,2.6,3.0,89,0.00,,,0.00,Rainwise IP-100,2013-02-22 05:30:00,
2013-02-21 21:35:00,46.6,43.0,30.37,West,270,1.9,3.0,89,0.00,,,0.00,Rainwise IP-100,2013-02-22 05:35:00,
2013-02-21 21:40:00,46.5,43.0,30.37,WSW,247,3.3,3.3,89,0.00,,,0.00,Rainwise IP-100,2013-02-22 05:40:00,
2013-02-21 21:45:00,46.5,44.0,30.37,WSW,247,1.6,3.3,90,0.00,,,0.00,Rainwise IP-100,2013-02-22 05:45:00,
2013-02-21 21:50:00,46.4,43.0,30.38,WNW,292,1.9,3.5,90,0.00,,,0.00,Rainwise IP-100,2013-02-22 05:50:00,
2013-02-21 21:55:00,46.5,44.0,30.38,WNW,292,1.6,3.7,90,0.00,,,0.00,Rainwise IP-100,2013-02-22 05:55:00,
2013-02-21 22:00:00,46.6,44.0,30.38,West,270,1.9,3.3,90,0.00,,,0.00,Rainwise IP-100,2013-02-22 06:00:00,
2013-02-21 22:05:00,46.6,44.0,30.37,WSW,247,1.4,3.0,90,0.00,,,0.00,Rainwise IP-100,2013-02-22 06:05:00,
2013-02-21 22:10:00,46.6,44.0,30.38,West,270,1.9,2.8,90,0.00,,,0.00,Rainwise IP-100,2013-02-22 06:10:00,
2013-02-21 22:12:00,46.6,44.0,30.38,West,270,1.4,3.5,90,0.00,,,0.00,Rainwise IP-100,2013-02-22 06:12:00,
2013-02-21 22:17:00,46.6,44.0,30.38,WNW,292,2.6,4.2,90,0.00,,,0.00,Rainwise IP-100,2013-02-22 06:17:00,
2013-02-21 22:22:00,46.5,44.0,30.38,West,270,2.1,3.0,90,0.00,,,0.00,Rainwise IP-100,2013-02-22 06:22:00,
2013-02-21 22:27:00,46.6,44.0,30.38,West,270,1.4,3.7,90,0.00,,,0.00,Rainwise IP-100,2013-02-22 06:27:00,
2013-02-21 22:32:00,46.7,44.0,30.38,WNW,292,1.6,3.7,90,0.00,,,0.00,Rainwise IP-100,2013-02-22 06:32:00,
2013-02-21 22:37:00,46.7,44.0,30.38,WNW,292,3.0,3.7,90,0.00,,,0.00,Rainwise IP-100,2013-02-22 06:37:00,
2013-02-21 22:42:00,46.6,44.0,30.38,NW,315,2.1,3.0,90,0.00,,,0.00,Rainwise IP-100,2013-02-22 06:42:00,
2013-02-21 22:47:00,46.5,44.0,30.38,WNW,292,2.3,3.3,90,0.00,,,0.00,Rainwise IP-100,2013-02-22 06:47:00,
2013-02-21 22:52:00,46.5,43.0,30.38,WNW,292,0.0,3.0,89,0.00,,,0.00,Rainwise IP-100,2013-02-22 06:52:00,
2013-02-21 22:57:00,46.4,42.0,30.38,WNW,292,0.0,0.0,88,0.00,,,0.00,Rainwise IP-100,2013-02-22 06:57:00,
2013-02-21 23:02:00,46.0,42.0,30.38,WNW,292,0.0,0.0,87,0.00,,,0.00,Rainwise IP-100,2013-02-22 07:02:00,
2013-02-21 23:07:00,46.1,42.0,30.39,West,270,0.0,1.4,87,0.00,,,0.00,Rainwise IP-100,2013-02-22 07:07:00,
2013-02-21 23:12:00,46.4,42.0,30.38,WNW,292,1.9,2.6,88,0.00,,,0.00,Rainwise IP-100,2013-02-22 07:12:00,
2013-02-21 23:17:00,46.6,43.0,30.38,WNW,292,1.4,2.3,87,0.00,,,0.00,Rainwise IP-100,2013-02-22 07:17:00,
2013-02-21 23:22:00,46.7,42.0,30.38,WNW,292,0.0,1.6,84,0.00,,,0.00,Rainwise IP-100,2013-02-22 07:22:00,
2013-02-21 23:27:00,46.9,41.0,30.38,West,270,3.0,3.5,82,0.00,,,0.00,Rainwise IP-100,2013-02-22 07:27:00,
2013-02-21 23:32:00,47.0,41.0,30.38,WNW,292,3.0,4.4,81,0.00,,,0.00,Rainwise IP-100,2013-02-22 07:32:00,
2013-02-21 23:37:00,47.1,41.0,30.38,East,90,2.3,4.2,80,0.00,,,0.00,Rainwise IP-100,2013-02-22 07:37:00,
2013-02-21 23:42:00,46.8,41.0,30.38,East,90,0.0,3.0,80,0.00,,,0.00,Rainwise IP-100,2013-02-22 07:42:00,
2013-02-21 23:47:00,46.1,40.0,30.38,East,90,0.0,1.2,81,0.00,,,0.00,Rainwise IP-100,2013-02-22 07:47:00,
2013-02-21 23:52:00,45.6,40.0,30.38,NNE,22,1.4,1.4,82,0.00,,,0.00,Rainwise IP-100,2013-02-22 07:52:00,
2013-02-21 23:57:00,45.5,40.0,30.38,NNE,22,0.0,1.6,82,0.00,,,0.00,Rainwise IP-100,2013-02-22 07:57:00,